TimeEDT,TemperatureF,Dew PointF,Humidity,Sea Level PressureIn,VisibilityMPH,Wind Direction,Wind SpeedMPH,Gust SpeedMPH,PrecipitationIn,Events,Conditions,WindDirDegrees,DateUTC
12:15 AM,60.8,59.0,94,30.29,-9999.0,Calm,Calm,-,N/A,,Mostly Cloudy,0,2012-09-13 04:15:00
12:35 AM,62.6,60.8,94,30.29,-9999.0,Calm,Calm,-,N/A,,Overcast,0,2012-09-13 04:35:00
12:55 AM,60.8,60.8,100,30.29,-9999.0,Calm,Calm,-,N/A,,Overcast,0,2012-09-13 04:55:00
1:15 AM,64.4,60.8,88,30.29,-9999.0,Calm,Calm,-,N/A,,Overcast,0,2012-09-13 05:15:00
1:35 AM,62.6,60.8,94,30.29,-9999.0,Calm,Calm,-,N/A,,Overcast,0,2012-09-13 05:35:00
1:55 AM,62.6,60.8,94,30.29,-9999.0,Calm,Calm,-,N/A,,Overcast,0,2012-09-13 05:55:00
2:15 AM,64.4,60.8,88,30.29,-9999.0,ESE,3.5,-,N/A,,Overcast,120,2012-09-13 06:15:00
2:35 AM,62.6,60.8,94,30.29,-9999.0,Calm,Calm,-,N/A,,Mostly Cloudy,0,2012-09-13 06:35:00
2:55 AM,62.6,60.8,94,30.28,-9999.0,Calm,Calm,-,N/A,,Overcast,0,2012-09-13 06:55:00
3:15 AM,64.4,60.8,88,30.27,-9999.0,Calm,Calm,-,N/A,,Overcast,0,2012-09-13 07:15:00
3:35 AM,64.4,60.8,88,30.27,-9999.0,Calm,Calm,-,N/A,,Overcast,0,2012-09-13 07:35:00
3:55 AM,64.4,60.8,88,30.27,-9999.0,SE,5.8,-,N/A,,Overcast,140,2012-09-13 07:55:00
4:15 AM,62.6,60.8,94,30.27,-9999.0,Calm,Calm,-,N/A,,Overcast,0,2012-09-13 08:15:00
4:35 AM,62.6,60.8,94,30.27,-9999.0,Calm,Calm,-,N/A,,Overcast,0,2012-09-13 08:35:00
4:55 AM,62.6,60.8,94,30.28,-9999.0,Calm,Calm,-,N/A,,Mostly Cloudy,0,2012-09-13 08:55:00
5:15 AM,60.8,60.8,100,30.29,-9999.0,Calm,Calm,-,N/A,,Mostly Cloudy,0,2012-09-13 09:15:00
5:35 AM,62.6,60.8,94,30.29,-9999.0,Calm,Calm,-,N/A,,Overcast,0,2012-09-13 09:35:00
5:55 AM,60.8,60.8,100,30.30,-9999.0,Calm,Calm,-,N/A,,Overcast,0,2012-09-13 09:55:00
6:15 AM,60.8,60.8,100,30.30,-9999.0,Calm,Calm,-,N/A,,Mostly Cloudy,0,2012-09-13 10:15:00
6:35 AM,60.8,59.0,94,30.31,-9999.0,South,3.5,-,N/A,,Overcast,180,2012-09-13 10:35:00
6:55 AM,60.8,59.0,94,30.32,-9999.0,SSW,3.5,-,N/A,,Overcast,200,2012-09-13 10:55:00
7:15 AM,60.8,59.0,94,30.32,-9999.0,SSW,4.6,-,N/A,,Mostly Cloudy,210,2012-09-13 11:15:00
7:35 AM,62.6,59.0,88,30.33,-9999.0,SSW,5.8,-,N/A,,Unknown,210,2012-09-13 11:35:00
7:55 AM,62.6,59.0,88,30.33,-9999.0,SSW,3.5,-,N/A,,Clear,210,2012-09-13 11:55:00
8:15 AM,64.4,59.0,83,30.34,-9999.0,SSW,4.6,-,N/A,,Scattered Clouds,210,2012-09-13 12:15:00
8:35 AM,64.4,59.0,83,30.34,-9999.0,SSW,6.9,-,N/A,,Clear,210,2012-09-13 12:35:00
8:55 AM,66.2,59.0,78,30.34,-9999.0,SW,6.9,-,N/A,,Clear,220,2012-09-13 12:55:00
9:15 AM,-9999,-9999,N/A,-9999,-9999.0,North,-9999.0,-,N/A,,Unknown,0,2012-09-13 13:15:00
9:35 AM,-9999,-9999,N/A,-9999,-9999.0,North,-9999.0,-,N/A,,Unknown,0,2012-09-13 13:35:00
10:35 AM,-9999,-9999,N/A,-9999,-9999.0,North,-9999.0,-,N/A,,Unknown,0,2012-09-13 14:35:00
10:55 AM,71.6,60.8,69,30.35,-9999.0,West,4.6,-,N/A,,Clear,260,2012-09-13 14:55:00
11:15 AM,73.4,60.8,65,30.35,10.0,West,9.2,-,N/A,,Clear,260,2012-09-13 15:15:00
11:35 AM,-9999,-9999,N/A,-9999,-9999.0,North,-9999.0,-,N/A,,Unknown,0,2012-09-13 15:35:00
12:15 PM,-9999,-9999,N/A,30.34,-9999.0,North,-9999.0,-,N/A,,Unknown,0,2012-09-13 16:15:00
12:35 PM,78.8,60.8,54,30.33,10.0,NW,3.5,-,N/A,,Clear,310,2012-09-13 16:35:00
12:55 PM,78.8,60.8,54,30.33,10.0,WNW,4.6,-,N/A,,Clear,300,2012-09-13 16:55:00
1:15 PM,78.8,60.8,54,30.32,10.0,WNW,5.8,-,N/A,,Clear,290,2012-09-13 17:15:00
1:35 PM,78.8,60.8,54,30.32,10.0,West,4.6,-,N/A,,Clear,260,2012-09-13 17:35:00
1:55 PM,78.8,60.8,54,30.31,10.0,Calm,Calm,-,N/A,,Scattered Clouds,0,2012-09-13 17:55:00
2:15 PM,78.8,59.0,51,30.30,10.0,Calm,Calm,-,N/A,,Clear,0,2012-09-13 18:15:00
2:35 PM,80.6,60.8,51,30.30,10.0,Calm,Calm,-,N/A,,Scattered Clouds,0,2012-09-13 18:35:00
2:55 PM,80.6,59.0,48,30.28,10.0,Calm,Calm,-,N/A,,Scattered Clouds,0,2012-09-13 18:55:00
3:15 PM,80.6,60.8,51,30.27,10.0,Calm,Calm,-,N/A,,Scattered Clouds,0,2012-09-13 19:15:00
3:35 PM,80.6,59.0,48,30.27,10.0,Calm,Calm,-,N/A,,Scattered Clouds,0,2012-09-13 19:35:00
3:55 PM,78.8,59.0,51,30.26,10.0,Calm,Calm,-,N/A,,Clear,0,2012-09-13 19:55:00
4:15 PM,78.8,59.0,51,30.25,10.0,Calm,Calm,-,N/A,,Clear,0,2012-09-13 20:15:00
4:35 PM,78.8,59.0,51,30.25,10.0,West,3.5,-,N/A,,Clear,260,2012-09-13 20:35:00
4:55 PM,78.8,59.0,51,30.25,10.0,West,3.5,-,N/A,,Clear,260,2012-09-13 20:55:00
5:15 PM,78.8,59.0,51,30.25,10.0,Calm,Calm,-,N/A,,Clear,0,2012-09-13 21:15:00
5:35 PM,80.6,59.0,48,30.25,10.0,Calm,Calm,-,N/A,,Clear,0,2012-09-13 21:35:00
5:55 PM,80.6,57.2,45,30.25,10.0,SSW,4.6,-,N/A,,Clear,210,2012-09-13 21:55:00
6:15 PM,78.8,57.2,47,30.25,10.0,SE,3.5,-,N/A,,Clear,140,2012-09-13 22:15:00
6:35 PM,78.8,59.0,51,30.25,10.0,South,3.5,-,N/A,,Clear,170,2012-09-13 22:35:00
6:55 PM,78.8,59.0,51,30.25,10.0,South,3.5,-,N/A,,Clear,190,2012-09-13 22:55:00
7:15 PM,77.0,59.0,54,30.25,10.0,Calm,Calm,-,N/A,,Clear,0,2012-09-13 23:15:00
7:35 PM,75.2,62.6,65,30.25,10.0,Calm,Calm,-,N/A,,Clear,0,2012-09-13 23:35:00
7:55 PM,71.6,64.4,78,30.25,10.0,Calm,Calm,-,N/A,,Clear,0,2012-09-13 23:55:00
8:15 PM,71.6,64.4,78,30.25,10.0,Calm,Calm,-,N/A,,Clear,0,2012-09-14 00:15:00
8:35 PM,68.0,64.4,88,30.26,10.0,Calm,Calm,-,N/A,,Clear,0,2012-09-14 00:35:00
8:55 PM,68.0,64.4,88,30.26,10.0,Calm,Calm,-,N/A,,Clear,0,2012-09-14 00:55:00
9:15 PM,68.0,62.6,83,30.26,10.0,Calm,Calm,-,N/A,,Clear,0,2012-09-14 01:15:00
9:35 PM,66.2,62.6,88,30.26,10.0,Calm,Calm,-,N/A,,Clear,0,2012-09-14 01:35:00
9:55 PM,64.4,62.6,94,30.26,10.0,Calm,Calm,-,N/A,,Clear,0,2012-09-14 01:55:00
10:15 PM,64.4,62.6,94,30.27,10.0,Calm,Calm,-,N/A,,Clear,0,2012-09-14 02:15:00
10:35 PM,64.4,62.6,94,30.27,10.0,Calm,Calm,-,N/A,,Clear,0,2012-09-14 02:35:00
10:55 PM,62.6,62.6,100,30.28,10.0,Calm,Calm,-,N/A,,Clear,0,2012-09-14 02:55:00
11:15 PM,62.6,62.6,100,30.28,10.0,Calm,Calm,-,N/A,,Clear,0,2012-09-14 03:15:00
11:35 PM,62.6,62.6,100,30.28,10.0,Calm,Calm,-,N/A,,Clear,0,2012-09-14 03:35:00
11:55 PM,62.6,62.6,100,30.29,10.0,Calm,Calm,-,N/A,,Clear,0,2012-09-14 03:55:00